Location: Unspecified
(0.0000°N, 0.0000°E)
Time: 05:18:01
(UTC+00:00)

A-11 Canister half - Pass Details

Date: 19 April 2026
Orbit: 1523 x 1685 km, 47.3° (Epoch: 13 May)

Event Time Altitude Azimuth Distance (km) Brightness Sun altitude
Rises 07:50:45 0° 334° (NNW) 4,876 11.5 27.3°
Reaches altitude 10° 07:54:11 10° 341° (NNW) 3,870 11.1 28.1°
Maximum altitude 08:03:19 42° 49° (NE) 2,142 11.2 30.4°
Drops below altitude 10° 08:12:09 10° 117° (ESE) 3,759 11.9 32.5°
Sets 08:15:24 0° 124° (SE) 4,724 12.1 33.3°
